Location: *
(40.9167°N, 9.5000°E)
Time: 03:49:33
(UTC+00:00)

Cosmos 614 Rocket - Pass Details

Date: 09 April 2020
Orbit: 734 x 763 km, 74.1° (Epoch: 31 May)

Event Time Altitude Azimuth Distance (km) Brightness Sun altitude
Rises 18:29:27 0° 191° (SSW) 3,211 7.2 -7.0°
Reaches altitude 10° 18:31:49 10° 189° (S) 2,288 6.4 -7.4°
Maximum altitude 18:36:59 71° 107° (ESE) 805 3.9 -8.4°
Drops below altitude 10° 18:42:10 10° 24° (NNE) 2,295 6.4 -9.3°
Sets 18:44:32 0° 22° (NNE) 3,220 7.2 -9.7°
